This demonstration page uses our WeatherBlox Daily Observations layout. Learn more.

Left ArrowRight Arrow

Hourly Observations for August 28, 2019

Temp ( °F °C ) Dew Point ( °F °C ) Humidity (%) Winds ( mph kmh ) Pressure ( in mb ) Visibility ( mi km ) Precip ( " mm )
12:56 am 00:56 Clear 61 16 55 13 83 83 WNW 5 7 30.06 1018 10 16 0.00 0.00
1:56 am 01:56 Clear 61 16 55 13 83 83 WNW 3 6 30.06 1018 10 16 0.00 0.00
2:56 am 02:56 Clear 59 15 55 13 88 88 W 3 6 30.06 1018 10 16 0.00 0.00
3:56 am 03:56 Clear 59 15 54 12 82 82 WNW 5 7 30.07 1018 10 16 0.00 0.00
4:56 am 04:56 Clear 57 14 54 12 88 88 W 6 9 30.08 1019 10 16 0.00 0.00
5:56 am 05:56 Clear 55 13 54 12 94 94 W 5 7 30.09 1019 10 16 0.00 0.00
6:56 am 06:56 Sunny 55 13 54 12 94 94 WNW 5 7 30.11 1020 10 16 0.00 0.00
8:56 am 08:56 Sunny 64 18 54 12 68 68 W 3 6 30.11 1020 10 16 0.00 0.00
9:56 am 09:56 Sunny 68 20 54 12 60 60 W 3 6 30.11 1020 10 16 0.00 0.00
10:56 am 10:56 Sunny 73 23 55 13 53 53 Calm 30.10 1019 10 16 0.00 0.00
11:56 am 11:56 Sunny 79 26 61 16 54 54 SW 5 7 30.09 1019 10 16 0.00 0.00
12:56 pm 12:56 Sunny 81 27 46 8 30 30 SSW 5 7 30.08 1019 10 16 0.00 0.00
1:56 pm 13:56 Partly Cloudy 82 28 48 9 30 30 SW 6 9 30.06 1018 10 16 0.00 0.00
2:56 pm 14:56 Mostly Sunny 82 28 55 13 40 40 WSW 9 15 30.05 1018 10 16 0.00 0.00
3:56 pm 15:56 Mostly Sunny 84 29 59 15 43 43 WSW 6 9 30.02 1017 10 16 0.00 0.00
4:56 pm 16:56 Partly Cloudy 82 28 59 15 45 45 SW 8 13 30.00 1016 10 16 0.00 0.00
5:56 pm 17:56 Mostly Cloudy 82 28 61 16 48 48 SSW 6 9 29.99 1016 10 16 0.00 0.00
6:56 pm 18:56 Mostly Cloudy 81 27 61 16 51 51 S 7 11 29.97 1015 10 16 0.00 0.00
7:56 pm 19:56 Mostly Cloudy 79 26 63 17 58 58 S 5 7 29.96 1015 10 16 0.00 0.00
8:56 pm 20:56 Mostly Cloudy 77 25 64 18 65 65 SSE 5 7 29.96 1015 10 16 0.00 0.00
9:56 pm 21:56 Mostly Cloudy 75 24 63 17 65 65 SE 7 11 29.95 1014 10 16 0.00 0.00
10:56 pm 22:56 Partly Cloudy 75 24 63 17 65 65 SSE 6 9 29.95 1014 10 16 0.00 0.00
11:56 pm 23:56 Mostly Clear 72 22 63 17 73 73 SE 3 6 29.94 1014 10 16 0.00 0.00

Powered by AerisWeather